Total_Precipitation_Accumulation
0.78 0.77 0.78 0.75 0.74 0.73 0.73 0.70 0.70 0.74 0.73 0.76 0.90 0.94 0.99 1.05 1.21 1.46 1.61 1.61 1.54 1.52 1.51 1.55 1.67 1.76 1.98 1.95 1.85 1.72 1.57 1.39 1.21 1.05 0.84 0.63 0.65 0.66 0.63 0.50 0.41 0.38 0.31
0.88 0.86 0.78 0.69 0.66 0.66 0.64 0.57 0.56 0.53 0.51 0.61 0.72 0.76 0.79 0.81 0.96 1.22 1.41 1.44 1.39 1.32 1.29 1.35 1.53 1.70 1.91 2.02 1.99 1.86 1.74 1.60 1.43 1.31 1.12 0.88 0.77 0.74 0.76 0.75 0.64 0.56 0.49
0.92 0.82 0.74 0.68 0.59 0.54 0.49 0.45 0.50 0.50 0.55 0.63 0.71 0.76 0.78 0.79 0.79 0.86 0.98 1.10 1.13 1.10 1.09 1.10 1.14 1.29 1.54 1.74 1.82 1.85 1.88 1.82 1.72 1.55 1.33 1.15 0.98 0.84 0.81 0.79 0.73 0.73 0.66
1.06 0.96 0.85 0.73 0.62 0.56 0.49 0.45 0.43 0.44 0.50 0.55 0.58 0.66 0.75 0.77 0.74 0.73 0.75 0.81 0.80 0.84 0.89 0.94 0.97 1.00 1.15 1.30 1.43 1.63 1.83 1.83 1.82 1.73 1.51 1.25 1.08 0.95 0.92 0.91 0.89 0.86 0.81
1.08 1.07 0.93 0.74 0.61 0.54 0.50 0.43 0.40 0.41 0.42 0.47 0.51 0.54 0.61 0.67 0.71 0.72 0.62 0.58 0.61 0.66 0.71 0.72 0.73 0.81 0.89 0.96 1.04 1.32 1.62 1.75 1.72 1.69 1.58 1.38 1.13 1.00 0.90 0.85 0.90 1.01 1.00
0.99 0.97 0.75 0.58 0.46 0.41 0.41 0.39 0.35 0.34 0.39 0.44 0.44 0.45 0.55 0.57 0.67 0.64 0.50 0.48 0.50 0.58 0.67 0.64 0.58 0.58 0.61 0.65 0.73 0.86 1.08 1.29 1.51 1.64 1.61 1.42 1.22 1.07 1.00 0.97 0.96 0.98 1.04
0.64 0.60 0.51 0.40 0.38 0.41 0.43 0.37 0.34 0.34 0.35 0.38 0.39 0.40 0.45 0.57 0.58 0.42 0.39 0.42 0.48 0.54 0.60 0.66 0.60 0.51 0.55 0.56 0.63 0.67 0.66 0.73 0.98 1.25 1.39 1.39 1.42 1.23 1.13 1.05 0.98 1.01 1.01
0.40 0.40 0.34 0.30 0.31 0.34 0.35 0.34 0.40 0.44 0.42 0.42 0.44 0.44 0.44 0.49 0.46 0.33 0.33 0.38 0.45 0.50 0.58 0.67 0.72 0.64 0.63 0.70 0.67 0.69 0.64 0.59 0.74 0.75 0.89 1.17 1.30 1.31 1.22 1.24 1.34 1.25 1.09
0.12 0.13 0.12 0.12 0.13 0.14 0.16 0.22 0.33 0.40 0.42 0.44 0.48 0.48 0.43 0.40 0.39 0.30 0.29 0.37 0.45 0.52 0.54 0.59 0.66 0.63 0.74 0.80 0.77 0.86 0.83 0.73 0.83 0.86 0.88 0.89 0.94 1.02 1.10 1.12 1.18 1.21 1.19
0.01 0.01 0.01 0.02 0.02 0.04 0.06 0.09 0.15 0.19 0.24 0.32 0.34 0.38 0.41 0.38 0.46 0.33 0.32 0.38 0.48 0.59 0.63 0.61 0.73 0.70 0.73 0.72 0.69 0.88 0.91 0.80 0.70 0.74 0.71 0.65 0.60 0.66 0.80 0.91 1.05 1.08 1.03
0.00 0.00 0.00 0.00 0.00 0.01 0.02 0.03 0.06 0.08 0.12 0.17 0.21 0.27 0.34 0.39 0.46 0.43 0.46 0.48 0.54 0.68 0.70 0.63 0.57 0.65 0.52 0.54 0.56 0.61 0.81 0.80 0.69 0.71 0.67 0.60 0.55 0.54 0.59 0.67 0.82 0.94 0.93
0.00 0.00 0.00 0.00 0.00 0.01 0.01 0.02 0.02 0.03 0.06 0.09 0.11 0.15 0.22 0.27 0.33 0.38 0.38 0.41 0.47 0.60 0.68 0.57 0.54 0.61 0.46 0.43 0.45 0.53 0.63 0.68 0.65 0.68 0.64 0.61 0.55 0.48 0.48 0.53 0.59 0.61 0.60
0.00 0.00 0.00 0.00 0.01 0.01 0.01 0.01 0.02 0.03 0.05 0.06 0.09 0.15 0.21 0.28 0.29 0.25 0.22 0.24 0.29 0.43 0.49 0.50 0.50 0.47 0.43 0.39 0.40 0.46 0.52 0.58 0.67 0.65 0.56 0.54 0.49 0.45 0.43 0.42 0.47 0.50 0.50
0.00 0.00 0.00 0.01 0.01 0.01 0.02 0.03 0.03 0.04 0.05 0.09 0.13 0.18 0.23 0.26 0.28 0.25 0.26 0.28 0.27 0.32 0.34 0.34 0.37 0.39 0.43 0.42 0.38 0.41 0.48 0.57 0.59 0.53 0.46 0.43 0.44 0.43 0.47 0.47 0.48 0.50 0.53
0.00 0.00 0.00 0.00 0.01 0.01 0.01 0.01 0.02 0.03 0.04 0.10 0.17 0.21 0.21 0.21 0.15 0.14 0.24 0.34 0.40 0.46 0.53 0.48 0.49 0.50 0.46 0.41 0.39 0.39 0.42 0.46 0.44 0.40 0.37 0.34 0.32 0.34 0.37 0.41 0.43 0.43 0.44
0.00 0.00 0.00 0.00 0.01 0.01 0.01 0.01 0.01 0.02 0.05 0.07 0.07 0.09 0.10 0.09 0.09 0.10 0.16 0.26 0.34 0.44 0.60 0.65 0.69 0.69 0.63 0.53 0.43 0.36 0.32 0.33 0.34 0.36 0.36 0.34 0.31 0.30 0.32 0.33 0.34 0.32 0.32
0.00 0.00 0.00 0.00 0.01 0.01 0.02 0.04 0.05 0.04 0.02 0.01 0.01 0.02 0.08 0.15 0.19 0.23 0.24 0.27 0.30 0.42 0.61 0.68 0.69 0.66 0.58 0.51 0.46 0.37 0.31 0.28 0.28 0.29 0.28 0.28 0.28 0.27 0.27 0.25 0.23 0.22 0.22
0.00 0.00 0.00 0.03 0.05 0.05 0.05 0.09 0.13 0.17 0.14 0.07 0.01 0.01 0.04 0.11 0.15 0.18 0.24 0.36 0.39 0.45 0.53 0.54 0.53 0.41 0.32 0.28 0.25 0.20 0.17 0.17 0.19 0.18 0.16 0.16 0.17 0.18 0.19 0.20 0.21 0.20 0.19
0.00 0.01 0.03 0.07 0.09 0.07 0.08 0.13 0.14 0.10 0.08 0.07 0.04 0.02 0.01 0.04 0.06 0.08 0.16 0.34 0.35 0.29 0.24 0.20 0.18 0.15 0.11 0.10 0.10 0.09 0.08 0.07 0.07 0.07 0.06 0.06 0.08 0.09 0.11 0.13 0.16 0.18 0.21
0.00 0.00 0.02 0.07 0.09 0.07 0.07 0.07 0.07 0.05 0.03 0.04 0.04 0.04 0.04 0.05 0.07 0.07 0.09 0.13 0.12 0.08 0.07 0.07 0.06 0.05 0.04 0.05 0.04 0.04 0.04 0.04 0.04 0.04 0.04 0.04 0.05 0.06 0.08 0.11 0.14 0.16 0.17
0.00 0.00 0.00 0.03 0.05 0.04 0.03 0.03 0.03 0.02 0.02 0.03 0.02 0.01 0.03 0.07 0.08 0.07 0.07 0.05 0.04 0.04 0.04 0.05 0.04 0.02 0.02 0.03 0.03 0.03 0.04 0.04 0.04 0.03 0.03 0.04 0.05 0.06 0.08 0.12 0.15 0.18 0.19
0.00 0.01 0.02 0.04 0.04 0.02 0.02 0.03 0.05 0.04 0.02 0.03 0.03 0.02 0.03 0.06 0.07 0.06 0.05 0.05 0.04 0.04 0.05 0.07 0.06 0.05 0.03 0.03 0.03 0.03 0.03 0.04 0.04 0.03 0.03 0.03 0.03 0.04 0.06 0.09 0.12 0.16 0.20
0.00 0.00 0.01 0.03 0.03 0.01 0.01 0.03 0.04 0.04 0.02 0.02 0.03 0.04 0.04 0.06 0.06 0.07 0.07 0.07 0.07 0.08 0.07 0.07 0.09 0.08 0.05 0.04 0.04 0.04 0.04 0.04 0.04 0.04 0.05 0.04 0.04 0.05 0.06 0.07 0.07 0.10 0.14
0.00 0.00 0.01 0.02 0.02 0.01 0.02 0.03 0.04 0.03 0.03 0.04 0.05 0.05 0.05 0.06 0.04 0.04 0.05 0.06 0.08 0.09 0.07 0.06 0.06 0.05 0.04 0.04 0.05 0.05 0.06 0.06 0.04 0.04 0.05 0.06 0.07 0.08 0.10 0.13 0.16 0.17 0.18
0.00 0.00 0.01 0.02 0.02 0.01 0.01 0.02 0.03 0.03 0.03 0.04 0.04 0.03 0.03 0.04 0.03 0.03 0.04 0.05 0.06 0.08 0.07 0.07 0.07 0.05 0.04 0.03 0.04 0.05 0.08 0.09 0.07 0.06 0.05 0.05 0.07 0.10 0.14 0.22 0.27 0.29 0.30
0.00 0.00 0.00 0.01 0.01 0.01 0.01 0.02 0.03 0.02 0.02 0.02 0.02 0.02 0.03 0.03 0.02 0.02 0.03 0.03 0.04 0.05 0.04 0.05 0.07 0.05 0.04 0.05 0.05 0.08 0.10 0.09 0.08 0.06 0.03 0.02 0.04 0.07 0.09 0.11 0.15 0.20 0.23